STARLINK-38080, 69989

Orbit data source: Space-Track

STARLINK-38080, 69989 is a payload satellite owned by SpaceX/Seattle (US) in SSO that was launched on Sat, 11 Jul 2026 UTC via an FALCON 9 launch vehicle from the Air Force Western Test Range (AFWTR). Payload-class satellites include a variety of spacecraft equipped with specific instruments for various scientific and technological missions. These include communications satellites like Starlink; space stations such as the ISS; scientific satellites like the Hubble; Earth observation satellites from companies like Planet Labs, Umbra, and HawkEye 360; GPS; miniature CubeSats for education and research; and military/defense satellites.

Loading next visibility...
Identifier
69989, 2026-159Q
Orbit
SSO
Country
Flag of USUS
Related business
Manufacturer
SpaceX/Seattle
Mission
Operational spacecraft
Bus & Motor
STARLINK V2MO, Unknown motor
Mass
575 kg wet, ~530 kg dry
Launch date (UTC)
2026-07-11 (2 months ago)
Launch vehicle
FALCON 9
Launch site
Air Force Western Test Range (AFWTR)
Object type
Payload
Rocket body
Debris
Shape & HBR
BOX + PAN, 17.7 m
Radar Cross Section
Large (>1 m²)

Expand to show TLE details & history
Last TLE update: 9 hours ago

TLE from 9 hours ago
0 STARLINK-38080
1 69989U 26159Q   26264.58335648  .00002400  00000-0  68594-4 0  9998
2 69989  97.2844 106.3794 0001563  88.9323 236.9949 15.36979774  6001
Epoch: 2026-09-21T14:00Z
TLE epoch observation values (Epoch: 2026-09-21T14:00:01.999Z)
Latitude
-34.04906°
Longitude
-99.16218°
Altitude
468.585 km
Speed
7.63 km/s
True Right ascension
07h 25m 13s
True Declination
-33° 52' 59"
Sunlit
Object was in daylight at epoch
Visualization orbit readout
Latitude
Unknown
Longitude
Unknown
Altitude
Unknown
Speed
Unknown
Apparent Right ascension
Unknown
Apparent Declination
Unknown
Sunlit
N/A
Visualization observer readout
Local Sidereal Time
16:21:16
Azimuth
Unknown
Elevation
Unknown
Doppler factor
Unknown
Orbital elements
Apogee altitude
453.052 km
Perigee altitude
450.917 km
Semi-major axis
6,830.121 km
Eccentricity
0.00016
Inclination
97.2844°
RAAN
106.3794°
Arg. of periapsis
88.9323°
True anomaly
236.97988°
Mean anomaly
236.9949°
Eccentric anomaly
236.98739°
Mean motion
3.84504 °/min
Orbital period
93.63 mins
BSTAR
0.000068594
Loading maneuver chart data...
Computing Atmospheric mass density...
Loading historical data...
Loading historical data...
Loading historical data...
Loading historical data...
Loading historical data...
Loading historical data...
Loading historical data...

Documentation

Showing up to 5 results
|